Location: Unspecified
(38.9517°N, 0.0000°E)
Time: 10:31:30
(UTC+00:00)

SL-08 R/B - Visible Passes

Search period start: 04 April 2026 00:00
Search period end: 14 April 2026 00:00
Orbit: 666 x 730 km, 98.5° (Epoch: 29 March)

Date Brightness Start Highest point End Pass type
(mag) Time Alt. Az. Time Alt. Az. Time Alt. Az.
4 Apr 4.9 19:13:11 10° NE 19:16:03 16° E 19:17:34 14° ESE visible
4 Apr 4.0 20:49:13 10° N 20:53:56 53° WNW 20:56:23 27° SW visible
5 Apr 3.7 19:53:05 10° NNE 19:57:40 40° E 19:59:36 28° SSE visible
5 Apr 5.7 21:31:21 10° NNW 21:34:59 22° WNW 21:38:23 11° WSW visible
6 Apr 5.2 19:00:01 10° E 19:00:57 10° E 19:01:51 10° E visible
6 Apr 3.4 20:34:10 10° N 20:39:02 77° WNW 20:41:36 28° SSW visible
7 Apr 4.2 19:38:27 10° NE 19:42:39 28° E 19:44:49 20° SE visible
7 Apr 5.1 21:15:59 10° N 21:20:11 30° WNW 21:23:36 14° WSW visible
8 Apr 3.2 20:19:13 10° NNE 20:24:07 75° ESE 20:26:48 27° S visible
8 Apr 6.3 21:59:06 10° NW 22:01:04 12° WNW 22:03:02 10° W visible
9 Apr 4.6 19:24:01 10° NE 19:27:36 20° E 19:29:59 15° SE visible
9 Apr 4.5 21:00:45 10° N 21:05:20 42° WNW 21:08:47 17° SW visible
10 Apr 3.5 20:04:22 10° NNE 20:09:09 52° E 20:11:58 23° SSE visible
10 Apr 6.0 21:43:11 10° NNW 21:46:19 17° WNW 21:49:28 10° WSW visible
11 Apr 5.0 19:09:58 10° ENE 19:12:30 14° E 19:15:03 10° ESE visible
11 Apr 3.9 20:45:39 10° N 20:50:27 59° WNW 20:53:56 18° SSW visible
12 Apr 3.9 19:49:37 10° NNE 19:54:08 36° E 19:57:07 19° SSE visible
12 Apr 5.5 21:27:39 10° NNW 21:31:31 24° WNW 21:35:23 10° WSW visible
13 Apr 3.3 20:30:37 10° NNE 20:35:32 85° WNW 20:39:04 19° SSW visible
